Location: Silverdale
(47.6506°N, 122.6941°W)
Time: 15:35:41
(UTC+00:00)

A-11 Canister half - Visible Passes

Search period start: 03 October 2022 00:00
Search period end: 13 October 2022 00:00
Orbit: 1524 x 1684 km, 47.3° (Epoch: 03 October)

Date Brightness Start Highest point End Pass type
(mag) Time Alt. Az. Time Alt. Az. Time Alt. Az.
03 Oct 9.0 03:40:22 10° W 03:49:48 79° SSW 03:54:52 33° ESE visible
03 Oct 9.6 05:45:24 10° WNW 05:53:09 41° SW 05:53:09 41° SW visible
04 Oct 9.0 03:18:41 10° W 03:28:06 81° SSW 03:34:16 26° ESE visible
04 Oct 9.5 05:23:42 10° WNW 05:32:30 44° SW 05:32:32 44° SW visible
05 Oct 9.0 02:57:00 10° W 03:06:25 82° SSW 03:13:41 20° ESE visible
05 Oct 9.4 05:02:00 10° WNW 05:10:51 46° SW 05:11:58 44° SSW visible
05 Oct 11.0 07:09:24 10° W 07:10:15 11° W 07:10:15 11° W visible
06 Oct 9.1 02:35:20 10° W 02:44:43 83° SSW 02:53:08 15° ESE visible
06 Oct 9.5 04:40:19 10° WNW 04:49:12 47° SW 04:51:26 41° S visible
06 Oct 10.9 06:47:24 10° W 06:49:43 14° WSW 06:49:43 14° WSW visible
07 Oct 9.1 02:13:39 10° W 02:23:02 84° SSW 02:32:39 10° ESE visible
07 Oct 9.5 04:18:37 10° WNW 04:27:34 49° SW 04:30:57 36° SSE visible
07 Oct 10.7 06:25:27 10° W 06:29:15 16° WSW 06:29:15 16° WSW visible
08 Oct 9.1 01:51:58 10° W 02:01:20 85° S 02:10:58 10° ESE visible
08 Oct 9.5 03:56:56 10° WNW 04:05:54 51° SSW 04:10:31 30° SSE visible
08 Oct 10.6 06:03:32 10° W 06:08:49 18° SW 06:08:49 18° SW visible
09 Oct 9.5 03:35:16 10° WNW 03:44:15 53° SSW 03:50:10 24° SSE visible
09 Oct 10.6 05:41:39 10° W 05:47:38 19° SW 05:48:29 19° SW visible
10 Oct 9.5 03:13:35 10° WNW 03:22:37 54° SSW 03:29:53 18° SE visible
10 Oct 10.5 05:19:47 10° W 05:26:03 20° SW 05:28:12 18° SW visible
11 Oct 9.5 02:51:54 10° WNW 03:00:57 56° SSW 03:09:42 12° SE visible
11 Oct 10.6 04:57:57 10° W 05:04:27 21° SW 05:08:01 17° SSW visible
12 Oct 9.5 02:30:13 10° WNW 02:39:18 58° SSW 02:48:36 10° SE visible
12 Oct 10.6 04:36:08 10° W 04:42:50 22° SW 04:47:56 15° SSW visible
